Погода в Гагарине

Погода в Гагарине : погода сейчас, прогноз погоды и архив. Всё, что Вы хотите узнать о погоде в Гагарине!

Хотите узнать прогноз погоды в Гагарине? Тогда Вам сюда: Погода в Гагарине

Поиск расширенной информации на нашем сайте:

Другие новости

Новости СМИ2

Главная страница сайта

Новости сайта

03.07.2017

Напоминаем, что на нашем специализированном сайте Метеоцентр.Азия вы можете получить высокодетализированные автоматические прогнозы погоды по пунктам России, СНГ и мира в авиационном формате (включающие направление и скорость ветра, видимость, явления погоды, количество и форму облачности, нижнюю и верхнюю границу облачности).

Рекомендуем: Не работает компьютер мастер компьютерная помощь.

Погода в Гагарине - сегодня

Время (UTC), дата Ветер
(°,м/с) 
Видим.   Явления Облачность Т
(°С)
Тd
(°С)
f(%) Тe
(°С)
Pmin
(гПа)
dP
(гПа)
Po
(мм)
O2
(г/м3)
Тmin Tmax R s Состояние
почвы
06 19.06.18 230 (ЮЗ) 12000 м    3/1 600 м средняя 
[Cu hum|Ac trans]
+22 +14.8 64 +31  1013.8  0.1  744  274  +16        сухая 
09 19.06.18 270 (З) 12000 м    9/9 840 м 
[Cu med, cong]
+26 +12.7 44 +31  1012.5  -1  743  271           
12 19.06.18 240 (ЮЗ) 12000 м    9/3 600 м кучево-дожд., верхняя 
[Cb cap|Ci fib]
+27.1 +11.3 37 +30  1010.7  -1.7  742  270           
21 19.06.18 240 (ЮЗ) 23000 м    6/0 верхняя 
[Cc]
+17.3 +12 71 +22  1009.4  -0.7  740  278           
06 20.06.18 280 (З) 3{12}  12000 м    1/1 600 м 
[Cu hum]
+16.9 +7.7 55 +17  1012.1  742  280  +13.4        сухая 
21 20.06.18 240 (ЮЗ) 25000 м    ясно 
+13.7 +7.2 65 +15  1012.6  0.8  742  284           
00 21.06.18 180 (Ю) 15000 м    ясно 
+9.5 +7.3 86 +11  1013.3  0.3  743  288           
03 21.06.18 210 (ЮЗ) 12000 м    ясно 
+12.2 +8.1 76 +13  1013.4  0.3  743  285  +8.3         
09 21.06.18 260 (З) 12000 м    3/3 1000 м 
[Cu hum]
+22.9 +10.3 45 +25  1011.9  -0.9  742  274           
15 21.06.18 260 (З) 12000 м    4/3 600 м средняя 
[Cu med, cong|Ac trans]
+23.6 +10.9 45 +26  1011.2  0.1  742  273           
21 21.06.18 160 (Ю) 20000 м    ясно 
+15.7 +11.9 78 +21  1011.5  0.1  742  280           
00 22.06.18 150 (ЮВ) 17000 м    ясно 
+14.3 +11.2 82 +18  1010.5  -1.1  741  281           
06 22.06.18 170 (Ю) 12000 м    9/0 верхняя 
[Ci fib]
+23.3 +13.1 53 +29  1006.9  -1.8  739  272  +14        сухая 
18 22.06.18 тихо () {12}  6000 м  слаб. ливневой дождь{гроза}  10/4 600 м кучево-дожд., средняя 
[Cb cap|Ac As]
+17.5 +16.7 95 +30  1009.1  1.2  740  276    +27.8  14     
06 23.06.18 040 (СВ) 12000 м  {ливн. осадки}  9/5 600 м кучево-дожд., средняя, верхняя 
[Cb calv|Ac cuf|Cc]
+16.8 +12.3 75 +23  1012.4  -0.3  742  279  +13.9      влажная 
15 23.06.18 040 (СВ) 12000 м    8/3 600 м средняя, верхняя 
[Sc diur, vesp|Ac cuf|Cc]
+17.5 +13 75 +24  1007.6  -2.9  739  277         
18 23.06.18 350 (С) 3500 м  гроза, ливневой дождь  10/10 210 м кучево-дожд. 
[Cb cap]
+14.6 +13.4 93 +21  1009.3  1.4  740  280    +17.6  11     
21 23.06.18 260 (З) 5000 м  дымка{гроза, ливн. осадки}  10/5 600 м кучево-дожд., средняя 
[Cb cap|Ac cuf]
+13.8 +13.1 96 +21  1008.3  -0.9  739  281           
06 24.06.18 170 (Ю) 12000 м    8/0 средняя 
[Ac As]
+21 +16.8 77 +33  1004.7  -0.3  737  272  +13.3      мокрая 
15 24.06.18 250 (З) 12000 м    9/4 600 м кучево-дожд., средняя 
[Cb cap|Ac trans]
+16 +9 63 +16  1011.9  1.1  742  281      0.5     
21 24.06.18 тихо ()   8000 м  местами туман поземный  ясно 
+8.9 +8 94 +9  1014.3  0.8  743  289           
00 25.06.18 тихо ()   5000 м  местами туман поземный  ясно 
+7.1 +6.7 97 +7  1016  1.5  744  291           
06 25.06.18 240 (ЮЗ) 12000 м    3/3 600 м 
[Cu hum]
+16.1 +10.3 68 +19  1017.5  746  282  +6.3        влажная 
09 25.06.18 210 (ЮЗ) 12000 м    8/8 800 м 
[Cu med, cong]
+19.2 +8.7 51 +20  1017.8  0.5  746  279           
12 25.06.18 230 (ЮЗ) 12000 м    9/5 600 м средняя 
[Cu med, cong|Ac trans]
+20.6 +8.1 45 +21  1018.6  0.8  747  279           
Время (UTC), дата Ветер
(°,м/с) 
Видим.   Явления Облачность Т
(°С)
Тd
(°С)
f(%) Тe
(°С)
Pmin
(гПа)
dP
(гПа)
Po
(мм)
O2
(г/м3)
Тmin Tmax R s Состояние
почвы

Для получения пояснительной информации подведите курсор к названию столбца.

ПОГОДА в Гагарине - архив

Всё, что Вы хотите узнать о погоде в Гагарине - удобно и подробно!

Выберите нужную дату (начиная с 1 января 2015* года) и нажмите кнопку "Найти".
Будут отображены архивные сводки погоды по пункту Гагарин, начиная с указанной даты.


Отображать данные в формате CSV (для использования в таблицах Excel)


Внимание! Наш архив погоды предназначен исключительно для личного некоммерческого использования в познавательных целях. Если Вам необходимы официальные справки о состоянии погоды (для производственных, юридических, коммерческих и т.п. целей), обращайтесь в органы Росгидромета.

*Примечание: данная дата относится к архиву по метеостанциям СССР (Россия, СНГ, Балтия).
Архив по метеостанциям Зарубежной Европы и Азии (кроме Китая) хранится 10 дней, по другим регионам земного шара (Китай, Африка, Америка, Австралия, Океания) - 1 день.

Гагарин - район местоположения метеостанции


Название, широта, долгота, высота метеостанции:
Гагарин 55.5°ш. 35°д. 194 м над ур. моря [Российская Федерация]

Дополнительная информация

В oтличие oт бoльшинства пoгoдных сайтoв мы публикуем пoдрoбную метеoинфoрмацию в детальнoм прoфессиoнальнoм фoрмате.

Характеристики температуры и влажнoсти вoздуха измеряются на высoте 2 м в тени вдали oт зданий и деревьев.
Скoрoсть ветра измеряется на высoте 10 м (на урoвне рoста челoвека скoрoсть ветра ниже в 1.5-2 раза). Если метеoстанция нахoдится в гoрoде или в лесу, тo скoрoсть ветра занижена на 2-4 м/с пo сравнению с oткрытым местoм. Скoрoсть ветра над акватoриями крупных рек и oзёр, а также на вершинах хoлмoв на 2-5 м/с выше, чем в oбычных услoвиях.
Атмoсфернoе давление в разных тoчках местнoсти мoжет значительнo oтличаться oт давления на метеoстанции, в зависимoсти oт услoвий рельефа (при пoдъёме на 10 м давление пoнижается примернo на 1 мм рт.ст.).